Retour au catalogue

METEOR 2-20 DEB

ActifPO
NORAD 44700·DEBRIS·🇷🇺 Russia

Lancé Sep 28, 1990 depuis Plesetsk Cosmodrome

Loading…

Prochains Passages (prochaines 24 heures)

TLE

VieillissantSource: Space-Track

Époque: Sep 9, 2026, 17:35 UTC

1 44700U 90086E   26252.73264280  .00002359  00000-0  13268-2 0  9998
2 44700  82.5044  44.6415 0009799 199.7659 221.6570 14.10082196652349

Suivez METEOR 2-20 DEB en temps réel avec AllMySat

Download on the App Store